Torna al catalogo

STARLINK-31748

AttivoComunicazioniVLEO
NORAD 59612·PAYLOAD·🇺🇸 United States

Lanciato Apr 28, 2024 da Cape Canaveral Space Force Station

Loading…

Prossimi Passaggi (prossime 24 ore)

TLE

AggiornatoSource: CelesTrak SupGP

Epoca: Sep 15, 2026, 03:02 UTC

1 59612C 24080M   26258.12687500 -.00019848  00000+0 -71885-3 0  2580
2 59612  43.0014  44.3922 0001518 267.5463 217.5397 15.27590478    12

Traccia STARLINK-31748 in tempo reale con AllMySat

Download on the App Store